Overview Statistics Trail Chart Weather Telemetry Raw packets
 

This is the latest recevied weather packets stored in our database for station/object HOWARD. If no packets are shown the sender has not sent any weather packets the latest 10 day(s).

<< 16 17 18 19 20 21 22 >>
Time Temp. Humidity Pressure Rain* Wind** Luminosity Snow
1788402285 3.89° C 80% 1007.1 hPa 0 mm - - -
1788401685 4.44° C 77% 1007.2 hPa 0 mm - - -
1788401085 4.44° C 78% 1006.9 hPa 0 mm - - -
1788400485 3.89° C 77% 1006.8 hPa 0 mm - - -
1788399975 4.44° C 77% 1006.9 hPa 0 mm - - -
1788399885 4.44° C 77% 1006.9 hPa 0 mm - - -
1788399285 4.44° C 77% 1006.6 hPa 0 mm - - -
1788398685 5° C 74% 1006.8 hPa 0 mm - - -
1788398085 5° C 73% 1006.6 hPa 0 mm - - -
1788397485 5.56° C 70% 1007 hPa 0 mm - - -
1788396885 6.11° C 66% 1007.1 hPa 0 mm - - -
1788396285 7.22° C 65% 1007.3 hPa 0 mm - - -
1788395685 7.22° C 62% 1007.4 hPa 0 mm - - -
1788395085 7.22° C 60% 1007.7 hPa 0 mm - - -
1788394506 7.22° C 59% 1008.4 hPa 0 mm - - -
1788393885 7.22° C 63% 1008.4 hPa 0 mm - - -
1788393285 7.78° C 58% 1008.5 hPa 0 mm - - -
1788392685 8.89° C 52% 1008.3 hPa 0 mm - - -
1788392085 9.44° C 53% 1008.6 hPa 0 mm - - -
1788391485 9.44° C 52% 1008.4 hPa 0 mm - - -
1788390885 10° C 53% 1008.5 hPa 0 mm - - -
1788390316 8.89° C 55% 1007.8 hPa 0 mm - - -
1788390285 8.89° C 55% 1007.8 hPa 0 mm - - -
1788389684 8.89° C 54% 1007.9 hPa 0 mm - - -
1788389084 8.33° C 54% 1007.8 hPa 0 mm - - -

* Rain latest hour (hover to see other rain measurements)
** Current wind speed in m/s (hover to see current wind gust speed)